Location: Arborea
(39.7744°N, 8.5819°E)
Time: 06:21:30
(UTC+00:00)

Cosmos 2322 - Pass Details

Date: 30 May 2022
Orbit: 840 x 855 km, 71.0° (Epoch: 03 July)

Event Time Altitude Azimuth Distance (km) Brightness Sun altitude
Exits shadow 21:31:04 44° 110° (ESE) 1,171 4.1 -23.0°
Maximum altitude 21:31:11 44° 106° (ESE) 1,170 4.1 -23.0°
Drops below altitude 10° 21:36:34 10° 36° (NE) 2,492 6.5 -23.5°
Sets 21:39:08 0° 30° (NNE) 3,432 7.3 -23.7°
